カタログに戻る

STARLINK-32886

運用中通信VLEO
NORAD 62807·PAYLOAD·🇺🇸 United States

打ち上げ Jan 24, 2025 から Vandenberg Space Force Base

Loading…

次のパス (今後24時間)

TLE

最新Source: CelesTrak SupGP

元期: Sep 15, 2026, 02:48 UTC

1 62807C 25018B   26258.11715278  .00010692  00000+0  31596-3 0  2586
2 62807  53.1570 146.5954 0001144  88.3750 313.3377 15.34380464    17

AllMySatでSTARLINK-32886をリアルタイム追跡

Download on the App Store